ORBCOMM FM41 [-]

Last updated on July 6, 2021, 3:36 p.m. UTC

1 33061U 08031B   21186.81933517 -.00000015  00000-0  28464-4 0  9995
2 33061  48.4475 299.2478 0005254 341.3537 159.6549 14.73644311701168
UTC
Height (km)
Latitude
Longitude
Inclination
Orbital Period
UTC large
Height (km)
Speed (km/s)
/
Latitude / Longitude
Inclination (degrees)
Orbital Period (minutes)
Azimuth
Elevation
Range (km)
Doppler Factor
iOS Compass Heading
iOS Angle